Weather History for KODX - March, 2013

Change the Weather History Date:

Tuesday, March 26, 2013

  Actual Average Record
Temperature  
Mean Temperature 25 °F 42 °F  
Max Temperature 47 °F 55 °F 83 °F (2012)
Min Temperature 3 °F 29 °F 3 °F (2013)
Degree Days  
Heating Degree Days 40 23  
Month to date heating degree days 875 735  
Since 1 July heating degree days 5844 5752  
Cooling Degree Days 0 0  
Month to date cooling degree days 0 0  
Year to date cooling degree days 0 0  
Moisture  
Dew Point 13 °F    
Average Humidity 59    
Maximum Humidity 92    
Minimum Humidity 26    
Precipitation  
Precipitation 0.00 in 0.07 in 1.89 in (1959)
Month to date precipitation 0.46 0.96  
Year to date precipitation 2.08 1.77  
Sea Level Pressure  
Sea Level Pressure 30.31 in    
Wind  
Wind Speed 6 mph (South)    
Max Wind Speed 17 mph    
Max Gust Speed 22 mph    
Visibility 10 miles    
Events      
T = Trace of Precipitation, MM = Missing Value Source: NWS Daily Summary

Daily Weather History Graph

Daily Weather History Graph

Search for Another Location

Airport or City:

Trip Planner

Search our weather history database for the weather conditions in past years. The results will help you decide how hot, cold, wet, or windy it might be!

Date:

Astronomy

Mar. 26, 2013 Rise Set
Actual Time 7:28 AM CDT 7:54 PM CDT
Civil Twilight 7:00 AM CDT 8:22 PM CDT
Nautical Twilight 6:27 AM CDT 8:55 PM CDT
Astronomical Twilight 5:54 AM CDT 9:29 PM CDT
Moon 7:33 PM CDT (3/26) 6:46 AM CDT (3/26)
Length of Visible Light 13h 22m
Length of Day
12h 26m
Waxing Gibbous, 99% of the Moon is Illuminated
Mar 26
Waxing Gibbous
Mar 27
Full
Apr 2
Last Quarter
Apr 10
New
Apr 18
First Quarter

Hourly Weather History & Observations

Time (CDT) Temp. Windchill Dew Point Humidity Pressure Visibility Wind Dir Wind Speed Gust Speed Precip Events Conditions
12:53 AM 9.0 °F - 6.1 °F 88% 30.44 in 10.0 mi Calm Calm - N/A   Clear
1:53 AM 9.0 °F - 5.0 °F 84% 30.44 in 10.0 mi Calm Calm - N/A   Clear
2:53 AM 8.1 °F - 5.0 °F 87% 30.42 in 10.0 mi Calm Calm - N/A   Clear
3:53 AM 8.1 °F 1.4 °F 5.0 °F 87% 30.42 in 10.0 mi WNW 3.5 mph - N/A   Clear
4:53 AM 6.1 °F - 1.9 °F 83% 30.41 in 10.0 mi Calm Calm - N/A   Clear
5:53 AM 5.0 °F - 1.9 °F 87% 30.41 in 10.0 mi Calm Calm - N/A   Clear
6:53 AM 3.9 °F - 1.0 °F 88% 30.40 in 10.0 mi Calm Calm - N/A   Clear
7:53 AM 5.0 °F - 1.0 °F 84% 30.41 in 10.0 mi Calm Calm - N/A   Clear
8:53 AM 12.9 °F - 10.9 °F 92% 30.40 in 10.0 mi Calm Calm - N/A   Clear
9:53 AM 19.9 °F 13.4 °F 15.1 °F 81% 30.40 in 10.0 mi South 4.6 mph - N/A   Clear
10:53 AM 28.0 °F 18.6 °F 17.1 °F 63% 30.37 in 10.0 mi South 10.4 mph - N/A   Clear
11:53 AM 32.0 °F 23.0 °F 19.0 °F 59% 30.35 in 10.0 mi South 11.5 mph - N/A   Clear
12:53 PM 37.0 °F 30.4 °F 19.9 °F 50% 30.31 in 10.0 mi South 9.2 mph - N/A   Clear
1:53 PM 41.0 °F 34.7 °F 21.0 °F 45% 30.27 in 10.0 mi South 10.4 mph 17.3 mph N/A   Clear
2:53 PM 44.1 °F 37.7 °F 19.0 °F 37% 30.25 in 10.0 mi South 12.7 mph 20.7 mph N/A   Clear
3:53 PM 46.0 °F 40.6 °F 18.0 °F 33% 30.21 in 10.0 mi SSE 11.5 mph 20.7 mph N/A   Clear
4:53 PM 46.9 °F - 16.0 °F 29% 30.19 in 10.0 mi SSE 11.5 mph - N/A   Clear
5:53 PM 46.0 °F 40.2 °F 14.0 °F 28% 30.18 in 10.0 mi South 12.7 mph - N/A   Clear
6:53 PM 45.0 °F 38.9 °F 16.0 °F 31% 30.18 in 10.0 mi South 12.7 mph - N/A   Clear
7:53 PM 39.9 °F 34.5 °F 18.0 °F 41% 30.19 in 10.0 mi SSE 8.1 mph - N/A   Clear
8:53 PM 37.0 °F 31.0 °F 19.0 °F 48% 30.20 in 10.0 mi SSE 8.1 mph - N/A   Clear
9:53 PM 35.1 °F 27.9 °F 19.0 °F 52% 30.20 in 10.0 mi SSE 9.2 mph - N/A   Clear
10:53 PM 33.1 °F 26.9 °F 19.0 °F 56% 30.21 in 10.0 mi SE 6.9 mph - N/A   Clear
11:53 PM 28.0 °F 21.7 °F 19.0 °F 69% 30.21 in 10.0 mi SSE 5.8 mph - N/A   Scattered Clouds